[[{"header":{"parameterUnit":"m.s-1","parameterCategory":1,"la1":30.2991,"la2":30.254,"lo1":-89.0895,"lo2":-89.0444,"dx":0.0017,"dy":0.0017,"nx":28,"ny":28,"refTime":"2022-12-05T15:00:00:Z","depth":0,"parameterNumber":2,"parameterNumberName":"U-component_of_WINDS"},"data":[0,0,0,0,0,0,0,0,0,0,0,0,0,0,0,0,0,0,0,0,0,0,0,0,0,0,0,0,0,0,0,0,0,0,0,0,0,0,0,0,0,0,0,0,0,0,0,0,0,0,0,0,0,0,0,0,0,0,-0.9979,-0.9979,0,-1.0,-1.0,-1.0,-0.9957,-0.9956,-0.9954,-0.9953,-0.9976,-0.9978,-0.998,0,0,0,0,0,0,0,0,0,0,0,0,0,-0.9903,-0.9905,-0.9979,-0.9979,-0.998,-1.0,-1.0,-1.0,-0.9957,-0.9956,-0.9954,-0.9952,-0.9975,-0.9977,-0.998,0,0,0,0,0,0,0,0,0,0,0,0,0,-0.9931,-0.9905,-0.9979,-0.996,-0.9959,-1.0,-1.0,-1.0001,-0.9958,-0.9956,-0.9954,-0.9952,-0.9974,-0.9977,-0.998,-1.004,0,0,-0.9989,-0.999,0,0,0,0,0,0,0,0,-0.993,-0.9934,-0.9963,-0.9962,-0.996,-0.9974,-0.9982,-1.0014,-0.9958,-0.9958,-0.9953,-0.9951,-0.9977,-0.9979,-0.9988,-1.0041,-1.0042,-0.9989,-0.9991,-0.9992,-0.9993,0,0,0,0,0,0,0,-0.9928,-0.9933,-0.9987,-0.9963,-0.9962,-0.9952,-0.9953,-0.9988,-0.9979,-0.9958,-0.9955,-0.9958,-0.9976,-0.9985,-0.9988,-1.0043,-0.9989,-0.9992,-0.9993,-0.9995,-1.0146,-1.0148,0,0,0,0,0,0,-0.9928,-0.9932,-0.9987,-0.9988,-0.9939,-0.9955,-0.9956,-0.9972,-0.9979,-0.9978,-0.996,-0.9956,-0.9982,-0.9985,-0.9989,-1.0059,-0.9992,-0.9995,-0.9996,-1.0143,-1.0146,-1.0149,0,0,0,0,0,0,-0.9926,-0.9933,-0.9986,-0.9959,-0.9965,-0.9958,-0.9976,-0.9973,-0.9983,-0.998,-0.9978,-0.9971,-0.998,-0.9985,-1.0028,-1.0059,-0.9996,-0.9999,-1.0141,-1.0144,-1.0147,-1.02,0,0,0,0,0,0,-0.9924,-0.9933,-0.9955,-0.996,-0.9966,-1.0024,-0.9977,-0.9975,-0.9988,-0.9983,-0.999,-0.9989,-0.9979,-1.0023,-1.003,-1.0062,-1.0001,-1.0138,-1.0142,-1.0146,-1.0196,-1.0205,-1.0213,0,0,0,0,0,-0.9922,-0.997,-0.9957,-0.9964,-0.9994,-1.0026,-1.003,-1.0016,-0.999,-1.0013,-1.0011,-0.9989,-1.0055,-1.0028,-1.0036,-1.0069,-1.0136,-1.0141,-1.0146,-1.0192,-1.0203,-1.0213,0,0,0,0,0,0,-0.997,-0.997,-0.9956,-1.0006,-1.0016,-1.0018,-1.0046,-1.0029,-1.0046,-1.0041,-1.0024,-1.0026,-1.0072,-1.0075,-1.0045,-1.0127,-1.0091,-1.0098,-1.0123,-1.0134,-1.0143,-1.0141,-1.0003,0,0,0,0,0,-0.9987,-1.0012,-1.0011,-1.0056,-1.0061,-1.0053,-1.0066,-1.0055,-1.0065,-1.0069,-1.007,-1.0081,-1.0104,-1.0119,-1.0141,-1.0196,-1.0197,-1.0223,-1.0232,-1.0239,-1.0245,-1.0274,-1.0285,-1.0165,-1.0165,-1.0165,0,0,-1.0021,-1.0024,-1.0041,-1.0065,-1.0072,-1.0098,-1.0057,-1.0087,-1.0107,-1.0074,-1.0113,-1.0115,-1.0126,-1.0175,-1.0197,-1.0179,-1.0278,-1.0245,-1.0251,-1.0253,-1.028,-1.0292,-1.0302,-1.0169,-1.0168,-1.0168,0,0,-1.0097,-1.0102,-1.014,-1.0147,-1.0157,-1.0151,-1.016,-1.0165,-1.0165,-1.0205,-1.018,-1.0204,-1.0244,-1.0252,-1.0262,-1.0341,-1.0321,-1.0349,-1.0394,-1.0423,-1.0432,-1.044,-1.0468,-1.0478,-1.0355,-1.0355,-1.0355,0,-1.0139,-1.0177,-1.0162,-1.0193,-1.0204,-1.0175,-1.0213,-1.0221,-1.0238,-1.0247,-1.0226,-1.0275,-1.0281,-1.0331,-1.0351,-1.036,-1.0369,-1.0347,-1.0432,-1.044,-1.0448,-1.0474,-1.0484,-1.0358,-1.0358,-1.0357,-1.0357,0,-1.0227,-1.0255,-1.0284,-1.03,-1.0315,-1.0349,-1.0339,-1.0356,-1.0344,-1.0341,-1.0381,-1.0387,-1.0408,-1.042,-1.0408,-1.0469,-1.0457,-1.0435,-1.0398,-1.0462,-1.0487,-1.0497,-1.0363,-1.0362,-1.0361,-1.036,0,0,-1.0334,-1.0341,-1.0351,-1.0358,-1.0367,-1.0388,-1.0422,-1.0442,-1.0457,-1.0469,-1.0497,-1.0532,-1.0511,-1.0522,-1.0511,-1.0536,-1.0598,-1.0511,-1.0511,-1.0526,-1.0664,-1.068,-1.0692,-1.0585,-1.0587,-1.0589,-1.0663,0,-1.0408,-1.0465,-1.0452,-1.0508,-1.0533,-1.0506,-1.0535,-1.0544,-1.0542,-1.0563,-1.0561,-1.0585,-1.0557,-1.0563,-1.0587,-1.0586,-1.0625,-1.058,-1.0611,-1.0612,-1.0607,-1.0705,-1.0722,-1.0792,-1.0673,-1.0674,-1.0675,0,-1.0502,-1.0518,-1.0576,-1.0581,-1.0591,-1.0617,-1.0634,-1.0655,-1.0665,-1.0661,-1.0674,-1.0658,-1.0692,-1.0655,-1.0701,-1.067,-1.0682,-1.0684,-1.0686,-1.0687,-1.0647,-1.0708,-1.0814,-1.0824,-1.069,-1.0689,-1.0688,0,-1.0573,-1.0609,-1.0648,-1.0655,-1.0661,-1.068,-1.0684,-1.0691,-1.0704,-1.072,-1.0728,-1.0748,-1.0759,-1.0774,-1.0765,-1.0739,-1.0812,-1.0775,-1.081,-1.081,-1.0825,-1.0824,-1.0934,-1.0835,-1.0835,-1.0835,-1.0835,0,-1.0657,-1.0694,-1.0679,-1.0704,-1.0744,-1.0729,-1.0769,-1.077,-1.0777,-1.0801,-1.078,-1.0803,-1.0789,-1.0811,-1.0804,-1.0842,-1.0848,-1.0846,-1.0843,-1.0847,-1.0847,-1.0854,-1.0848,-1.0838,-1.0837,-1.0836,-1.0836,0,-1.0742,-1.0734,-1.0775,-1.0778,-1.0779,-1.0809,-1.0811,-1.0834,-1.083,-1.0861,-1.0867,-1.0862,-1.0887,-1.0879,-1.0906,-1.0901,-1.095,-1.0941,-1.0946,-1.0944,-1.0978,-1.0975,-1.1095,-1.1109,-1.1003,-1.1004,-1.1005,0,-1.0795,-1.0823,-1.0828,-1.0842,-1.0847,-1.0871,-1.0884,-1.0871,-1.0885,-1.0898,-1.0919,-1.0942,-1.0959,-1.1,-1.0999,-1.102,-1.1011,-1.1052,-1.1014,-1.1017,-1.101,-1.1008,-1.1011,-1.1059,-1.106,-1.1061,-1.1062,0,-1.0891,-1.0886,-1.0905,-1.0923,-1.0939,-1.0952,-1.0964,-1.0977,-1.0965,-1.0982,-1.1007,-1.102,-1.1048,-1.1071,-1.1089,-1.1093,-1.1076,-1.1074,-1.1083,-1.1087,-1.1088,-1.1087,-1.0965,-1.1071,-1.107,-1.107,-1.1069,-1.1069,-1.0961,-1.0984,-1.0991,-1.1013,-1.1021,-1.1032,-1.1053,-1.1052,-1.1072,-1.1093,-1.1084,-1.1113,-1.1122,-1.1144,-1.1151,-1.1174,-1.1158,-1.1171,-1.1174,-1.1178,-1.1181,-1.1085,-1.1177,-1.1177,-1.1177,-1.1176,-1.1176,0,-1.1055,-1.1058,-1.1078,-1.1095,-1.1112,-1.1094,-1.1106,-1.1122,-1.1147,-1.1157,-1.1174,-1.1203,-1.1225,-1.1225,-1.1246,-1.1264,-1.1256,-1.127,-1.1268,-1.1269,-1.1195,-1.1184,-1.1275,-1.1275,-1.1275,-1.1275,-1.1275,-1.1275,-1.1105,-1.1142,-1.1138,-1.1179,-1.1182,-1.1209,-1.1218,-1.1228,-1.1235,-1.1268,-1.1286,-1.1286,-1.1292,-1.1313,-1.1332,-1.1332,-1.134,-1.1357,-1.1353,-1.1284,-1.1274,-1.1265,-1.1255,-1.1359,-1.1359,-1.1425,-1.1425,-1.1426]},{"header":{"parameterUnit":"m.s-1","parameterCategory":1,"la1":30.2991,"la2":30.254,"lo1":-89.0895,"lo2":-89.0444,"dx":0.0017,"dy":0.0017,"nx":28,"ny":28,"refTime":"2022-12-05T15:00:00:Z","depth":0,"parameterNumber":3,"parameterNumberName":"V-component_of_WINDS"},"data":[0,0,0,0,0,0,0,0,0,0,0,0,0,0,0,0,0,0,0,0,0,0,0,0,0,0,0,0,0,0,0,0,0,0,0,0,0,0,0,0,0,0,0,0,0,0,0,0,0,0,0,0,0,0,0,0,0,0,0.2948,0.2947,0,0.2933,0.2933,0.2932,0.2961,0.2962,0.2963,0.2964,0.2948,0.2947,0.2946,0,0,0,0,0,0,0,0,0,0,0,0,0,0.3001,0.3,0.2948,0.2947,0.2947,0.2933,0.2933,0.2932,0.2961,0.2962,0.2963,0.2964,0.2949,0.2947,0.2946,0,0,0,0,0,0,0,0,0,0,0,0,0,0.2981,0.3,0.2948,0.296,0.2961,0.2933,0.2933,0.2932,0.2961,0.2962,0.2963,0.2965,0.2949,0.2947,0.2945,0.2905,0,0,0.294,0.2939,0,0,0,0,0,0,0,0,0.2982,0.2979,0.2958,0.2959,0.296,0.295,0.2946,0.2923,0.296,0.2961,0.2964,0.2965,0.2948,0.2946,0.294,0.2904,0.2904,0.2939,0.2938,0.2937,0.2937,0,0,0,0,0,0,0,0.2984,0.298,0.2942,0.2958,0.2959,0.2966,0.2965,0.2942,0.2946,0.2961,0.2963,0.2961,0.2949,0.2942,0.294,0.2904,0.2939,0.2938,0.2937,0.2936,0.2835,0.2834,0,0,0,0,0,0,0.2984,0.2981,0.2942,0.2941,0.2975,0.2964,0.2963,0.2952,0.2947,0.2947,0.2959,0.2962,0.2945,0.2942,0.294,0.2893,0.2937,0.2936,0.2934,0.2837,0.2835,0.2833,0,0,0,0,0,0,0.2985,0.298,0.2943,0.2962,0.2958,0.2962,0.2949,0.2951,0.2944,0.2946,0.2947,0.2952,0.2946,0.2942,0.2914,0.2893,0.2935,0.2933,0.2839,0.2836,0.2834,0.2798,0,0,0,0,0,0,0.2986,0.298,0.2965,0.2961,0.2956,0.2917,0.2948,0.2949,0.2941,0.2944,0.2939,0.2939,0.2946,0.2917,0.2912,0.2891,0.2931,0.284,0.2838,0.2835,0.2801,0.2795,0.279,0,0,0,0,0,0.2988,0.2955,0.2964,0.2959,0.2937,0.2916,0.2913,0.2922,0.2939,0.2924,0.2925,0.294,0.2896,0.2913,0.2908,0.2886,0.2842,0.2838,0.2835,0.2804,0.2796,0.279,0,0,0,0,0,0,0.2955,0.2954,0.2964,0.2929,0.2922,0.292,0.2901,0.2913,0.2901,0.2905,0.2916,0.2915,0.2884,0.2882,0.2902,0.2848,0.2872,0.2867,0.285,0.2842,0.2837,0.2838,0.293,0,0,0,0,0,0.2944,0.2926,0.2927,0.2896,0.2892,0.2897,0.2888,0.2896,0.2889,0.2886,0.2885,0.2878,0.2863,0.2853,0.2839,0.2801,0.2801,0.2784,0.2778,0.2773,0.2769,0.275,0.2743,0.2822,0.2822,0.2822,0,0,0.292,0.2918,0.2906,0.2889,0.2885,0.2867,0.2894,0.2874,0.2861,0.2883,0.2856,0.2855,0.2848,0.2815,0.2801,0.2813,0.2747,0.2769,0.2765,0.2763,0.2746,0.2738,0.2731,0.282,0.282,0.2821,0,0,0.2868,0.2864,0.2838,0.2833,0.2827,0.2831,0.2824,0.2821,0.2821,0.2795,0.2811,0.2796,0.2769,0.2764,0.2758,0.2705,0.2718,0.27,0.2669,0.2651,0.2644,0.2639,0.2621,0.2614,0.2696,0.2696,0.2696,0,0.2839,0.2813,0.2823,0.2802,0.2794,0.2814,0.2788,0.2783,0.2772,0.2766,0.278,0.2748,0.2745,0.2711,0.2698,0.2692,0.2686,0.2701,0.2644,0.2639,0.2634,0.2617,0.261,0.2694,0.2694,0.2694,0.2694,0,0.2778,0.2759,0.2739,0.2729,0.2719,0.2695,0.2703,0.2691,0.27,0.2703,0.2676,0.2673,0.2659,0.2652,0.266,0.262,0.2627,0.2643,0.2667,0.2624,0.2608,0.2601,0.2691,0.2691,0.2692,0.2693,0,0,0.2704,0.27,0.2693,0.2689,0.2683,0.2669,0.2647,0.2633,0.2624,0.2616,0.2598,0.2575,0.259,0.2583,0.259,0.2574,0.2533,0.2591,0.2591,0.2581,0.2489,0.2478,0.247,0.2542,0.2541,0.254,0.249,0,0.2653,0.2614,0.2624,0.2586,0.2569,0.2588,0.2569,0.2564,0.2566,0.2552,0.2555,0.2539,0.2559,0.2555,0.2539,0.2541,0.2515,0.2545,0.2525,0.2525,0.2527,0.2461,0.2449,0.2402,0.2484,0.2483,0.2482,0,0.2587,0.2577,0.2538,0.2536,0.2529,0.2512,0.2501,0.2488,0.2482,0.2485,0.2478,0.2489,0.2468,0.2492,0.2463,0.2484,0.2476,0.2476,0.2475,0.2473,0.2501,0.2458,0.2388,0.2381,0.2472,0.2473,0.2473,0,0.2538,0.2514,0.2488,0.2484,0.2481,0.2468,0.2466,0.2463,0.2454,0.2445,0.244,0.2428,0.2421,0.2412,0.242,0.2437,0.239,0.2415,0.2392,0.2392,0.2381,0.2381,0.2308,0.2376,0.2376,0.2376,0.2376,0,0.2479,0.2455,0.2466,0.245,0.2423,0.2434,0.2407,0.2408,0.2404,0.2389,0.2405,0.239,0.2401,0.2387,0.2394,0.2369,0.2366,0.2368,0.237,0.2366,0.2366,0.2361,0.2365,0.2374,0.2375,0.2375,0.2375,0,0.2419,0.2426,0.2398,0.2398,0.2398,0.2378,0.2378,0.2363,0.2367,0.2347,0.2343,0.2349,0.2333,0.2341,0.2324,0.2329,0.2297,0.2303,0.2299,0.23,0.2277,0.2279,0.2198,0.2188,0.2262,0.2261,0.2261,0,0.2382,0.2363,0.2361,0.2352,0.2349,0.2334,0.2326,0.2337,0.2328,0.2321,0.2307,0.2294,0.2283,0.2258,0.2261,0.2249,0.2255,0.2227,0.2253,0.2251,0.2255,0.2256,0.2254,0.2222,0.2221,0.222,0.222,0,0.2314,0.2319,0.2307,0.2296,0.2286,0.2277,0.2271,0.2262,0.2273,0.2262,0.2247,0.2239,0.2223,0.2209,0.2199,0.2197,0.221,0.2212,0.2206,0.2202,0.22,0.2201,0.2285,0.2214,0.2214,0.2215,0.2215,0.2215,0.2265,0.2249,0.2246,0.2232,0.2228,0.2222,0.2208,0.221,0.2198,0.2186,0.2193,0.2175,0.2171,0.2159,0.2156,0.2142,0.2153,0.2145,0.2142,0.214,0.2137,0.2203,0.2141,0.2141,0.2141,0.2141,0.2141,0,0.2198,0.2197,0.2185,0.2175,0.2164,0.2178,0.2171,0.2161,0.2146,0.2141,0.2131,0.2113,0.21,0.2102,0.2091,0.208,0.2085,0.2076,0.2077,0.2077,0.2128,0.2134,0.2072,0.2072,0.2072,0.2072,0.2072,0.2072,0.2163,0.2138,0.2142,0.2116,0.2115,0.2098,0.2093,0.2087,0.2084,0.2064,0.2054,0.2055,0.2053,0.2042,0.2031,0.2032,0.2027,0.2015,0.2018,0.2066,0.2073,0.208,0.2086,0.2014,0.2014,0.1969,0.1968,0.1968]}]]